This demonstration page uses our WeatherBlox Daily Observations layout. Learn more.

Left ArrowRight Arrow

Hourly Observations for August 4, 2020

Temp ( °F °C ) Dew Point ( °F °C ) Humidity (%) Winds ( mph kmh ) Pressure ( in mb ) Visibility ( mi km ) Precip ( " mm )
12:51 am 00:51 Clear 84 28.9 53 11.7 34 34 WNW 3 6 29.83 1010 10 16.0934 0 0
1:51 am 01:51 Clear 83 28.3 53 11.7 36 36 SE 3 6 29.82 1010 10 16.0934 0 0
2:51 am 02:51 Clear 82 27.8 52 11.1 35 35 Calm 29.82 1010 10 16.0934 0 0
3:51 am 03:51 Clear 78 25.6 53 11.7 42 42 Calm 29.84 1010 10 16.0934 0 0
4:51 am 04:51 Clear 77 25 54 12.2 45 45 N 6 9 29.85 1011 10 16.0934 0 0
5:51 am 05:51 Sunny 76 24.4 54 12.2 47 47 Calm 29.86 1011 10 16.0934 0 0
6:51 am 06:51 Sunny 81 27.2 54 12.2 39 39 SSE 7 11 29.87 1012 10 16.0934 0 0
7:51 am 07:51 Sunny 85 29.4 55 12.8 36 36 SSE 3 6 29.89 1012 10 16.0934 0 0
8:51 am 08:51 Sunny 89 31.7 55 12.8 31 31 Calm 29.89 1012 10 16.0934 0 0
9:51 am 09:51 Sunny 96 35.6 52 11.1 23 23 NW 14 22 29.87 1012 10 16.0934 0 0
10:51 am 10:51 Sunny 99 37.2 49 9.4 18 18 NNW 9 15 29.85 1011 10 16.0934 0 0
11:51 am 11:51 Sunny 100 37.8 46 7.8 16 16 NW 13 20 29.84 1011 10 16.0934 0 0
12:51 pm 12:51 Sunny 102 38.9 46 7.8 15 15 W 13 20 29.82 1010 10 16.0934 0 0
1:51 pm 13:51 Sunny 104 40 47 8.3 15 15 NW 13 20 29.79 1009 10 16.0934 0 0
2:51 pm 14:51 Sunny 105 40.6 46 7.8 14 14 NW 10 17 29.76 1008 10 16.0934 0 0
3:51 pm 15:51 Sunny 105 40.6 44 6.7 13 13 WNW 18 30 29.75 1007 10 16.0934 0 0
4:51 pm 16:51 Sunny 104 40 45 7.2 13 13 NW 14 22 29.73 1007 10 16.0934 0 0
5:51 pm 17:51 Sunny 102 38.9 43 6.1 13 13 WNW 17 28 29.73 1007 10 16.0934 0 0
6:51 pm 18:51 Sunny 99 37.2 38 3.3 12 12 WNW 17 28 29.74 1007 10 16.0934 0 0
7:51 pm 19:51 Clear 94 34.4 36 2.2 13 13 WNW 12 19 29.75 1008 10 16.0934 0 0
8:51 pm 20:51 Clear 90 32.2 39 3.9 17 17 NW 9 15 29.78 1008 10 16.0934 0 0
9:51 pm 21:51 Clear 90 32.2 41 5 18 18 WNW 14 22 29.78 1009 10 16.0934 0 0
10:51 pm 22:51 Clear 86 30 42 5.6 21 21 NW 8 13 29.78 1009 10 16.0934 0 0
11:51 pm 23:51 Clear 85 29.4 42 5.6 22 22 NW 6 9 29.78 1009 10 16.0934 0 0

Powered by AerisWeather